Back to catalog

ONEWEB-0303

AliveCommunicationsPO
NORAD 49187·PAYLOAD·🇬🇧 United Kingdom

Launched Sep 14, 2021 from Baikonur Cosmodrome

Loading…

Next Passes (next 24 hours)

TLE

FreshSource: CelesTrak SupGP

Epoch: Sep 14, 2026, 20:40 UTC

1 49187C 21083B   26257.86128889 -.00001477  00000+0 -37505-2 0  2574
2 49187  87.9171 317.6415 0002034 102.9048   7.3004 13.18687971    10

Track ONEWEB-0303 in real time with AllMySat

Download on the App Store